Location: Bishop's University Astronomical Observatory
(45.3661°N, 71.8475°W)
Time: 18:19:05
(UTC-04:00)

CZ-4C R/B - Visible Passes

Search period start: 16 October 2017 00:00
Search period end: 26 October 2017 00:00
Orbit: 707 x 1295 km, 63.4° (Epoch: 15 October)

Date Brightness Start Highest point End Pass type
(mag) Time Alt. Az. Time Alt. Az. Time Alt. Az.
16 Oct 5.4 01:13:59 10° NE 01:13:59 10° NE 01:14:04 10° NE visible
16 Oct 4.4 02:59:13 25° N 03:00:59 28° NNE 03:07:17 10° E visible
16 Oct 2.9 04:44:28 15° NW 04:50:35 80° NE 04:58:32 10° SE visible
16 Oct 3.8 06:32:49 10° WNW 06:38:46 27° WSW 06:45:07 10° SSW visible
16 Oct 3.0 20:09:19 10° S 20:12:17 32° S 20:12:17 32° S visible
17 Oct 5.1 01:47:26 15° NE 01:47:26 15° NE 01:49:37 10° ENE visible
17 Oct 3.8 03:32:42 32° N 03:35:11 42° NE 03:42:29 10° ESE visible
17 Oct 2.9 05:17:57 14° NW 05:24:08 60° WSW 05:31:56 10° SSE visible
17 Oct 3.5 18:56:58 10° SE 19:00:08 16° ESE 19:01:00 16° E visible
17 Oct 2.6 20:42:21 10° SW 20:46:18 53° SW 20:46:18 53° SW visible
18 Oct 4.7 02:21:08 23° NE 02:21:08 23° NE 02:25:20 10° E visible
18 Oct 3.0 04:06:25 42° NNW 04:09:06 70° NE 04:16:59 10° SE visible
18 Oct 3.6 05:51:42 12° WNW 05:57:26 32° WSW 06:04:15 10° S visible
18 Oct 2.6 19:28:12 10° S 19:32:58 38° ESE 19:34:52 29° ENE visible
18 Oct 3.5 21:16:16 10° WSW 21:20:07 37° WNW 21:20:07 37° WNW visible
19 Oct 4.1 02:55:05 35° ENE 02:55:05 35° ENE 03:00:42 10° ESE visible
19 Oct 2.8 04:40:23 46° WNW 04:42:43 70° WSW 04:50:38 10° SSE visible
19 Oct 4.3 06:26:17 10° WNW 06:30:26 16° WSW 06:34:46 10° SW visible
19 Oct 3.8 18:16:44 10° SE 18:18:56 13° ESE 18:21:13 10° E visible
19 Oct 2.0 20:00:58 10° SSW 20:06:12 84° SE 20:08:29 39° NE visible
19 Oct 4.3 21:50:53 10° W 21:53:45 22° WNW 21:53:45 22° WNW visible
20 Oct 3.5 03:29:15 51° E 03:29:15 51° E 03:35:22 10° SE visible
20 Oct 3.3 05:14:33 35° W 05:16:05 38° WSW 05:23:15 10° S visible
20 Oct 2.9 18:47:10 10° S 18:51:41 31° ESE 18:56:40 10° NE visible
20 Oct 2.9 20:34:40 10° WSW 20:39:52 50° NW 20:41:54 35° N visible
20 Oct 4.9 22:25:58 10° WNW 22:27:08 14° NW 22:27:08 14° NW visible
21 Oct 5.3 02:18:15 12° E 02:18:15 12° E 02:18:50 10° E visible
21 Oct 3.3 04:03:34 50° SSE 04:03:34 50° SSE 04:09:16 10° SSE visible
21 Oct 4.1 05:48:53 19° WSW 05:49:10 19° WSW 05:54:23 10° SSW visible
21 Oct 2.1 19:19:38 10° SSW 19:24:49 69° ESE 19:29:52 14° NE visible
21 Oct 3.9 21:09:06 10° W 21:13:56 29° NNW 21:15:06 27° NNW visible
22 Oct 5.1 02:52:37 15° ESE 02:52:37 15° ESE 02:53:43 10° ESE visible
22 Oct 3.9 04:37:56 31° SSW 04:37:56 31° SSW 04:42:10 10° S visible
22 Oct 2.7 19:53:06 10° SW 19:58:21 59° NW 20:02:54 18° NNE visible
22 Oct 4.5 21:44:06 10° WNW 21:48:08 20° NNW 21:48:08 20° NNW visible
23 Oct 5.0 03:26:59 14° SE 03:26:59 14° SE 03:27:49 10° SE visible
23 Oct 4.6 05:12:17 15° SSW 05:12:17 15° SSW 05:13:47 10° SSW visible
23 Oct 2.3 18:38:21 10° SSW 18:43:26 57° ESE 18:49:16 10° NE visible
23 Oct 3.7 20:27:23 10° W 20:32:19 33° NW 20:35:48 19° NNE visible
23 Oct 4.9 22:19:16 10° NW 22:21:00 14° NNW 22:21:00 14° NNW visible
24 Oct 2.4 19:11:36 10° SW 19:16:53 70° NW 19:22:59 10° NE visible
24 Oct 4.3 21:02:16 10° WNW 21:06:38 22° NNW 21:08:35 19° N visible
25 Oct 3.5 19:45:41 10° WSW 19:50:44 38° NW 19:56:05 12° NNE visible
25 Oct 4.6 21:37:25 10° NW 21:41:15 17° N 21:41:16 17° N visible
